Miscellaneous Local Product
Issued by NWS North Platte, NE

Home | Current Version | Previous Version | Text Only | Print | Product List | Glossary On
Versions: 1 2 3 4 5 6 7 8 9 10 11 12 13 14 15 16 17 18 19 20 21 22 23 24 25 26 27 28 29 30 31 32 33 34 35 36 37 38 39 40 41 42 43 44 45 46 47 48 49 50
000
AXUS43 KLBF 221710
MISLBF


WESTERN AND NORTH CENTRAL NEBRASKA HOURLY WEATHER ROUNDUP
NATIONAL WEATHER SERVICE NORTH PLATTE NE
1200 PM CDT FRI MAY 22 2015

***STATIONS NOT REPORTING VARIABLES SUCH AS SKY/WEATHER OR
PRESSURE ARE PROVIDED BY THE NEBRASKA DEPARTMENT OF
ROADS...RAWS...AND APRS NETWORKS...AND ARE NOT UNDER
NATIONAL WEATHER SERVICE QUALITY CONTROL***

...OBSERVATIONS IN AND NEAR THE EASTERN PANHANDLE OF NEBRASKA...

CITY           SKY/WX    TMP DP  RH WIND       PRES   REMARKS
PINE RIDGE     CLOUDY    57  38  48 SE20G25   30.11S
CHADRON        CLOUDY    56  43  61 S20       30.10R
ALLIANCE       LGT RAIN  48  44  86 SE15      30.10F
SIDNEY         LGT RAIN  48  45  89 E17       30.08F
WHITECLAY        N/A     55  39  54 SE16        N/A
BIG SPRINGS      N/A     49  47  94 E16         N/A
$$

...OBSERVATIONS IN NORTH CENTRAL NEBRASKA...

CITY           SKY/WX    TMP DP  RH WIND       PRES   REMARKS
VALENTINE      CLOUDY    60  40  47 S20       30.17R
THEDFORD       CLOUDY    54  45  70 S20       30.19S
AINSWORTH      CLOUDY    60  41  51 S15G21    30.19R
O`NEILL        CLOUDY    64  43  46 S13       30.22R
ORD            CLOUDY    55  45  68 SE6       30.21S
BROKEN BOW     LGT RAIN  51  45  79 S13G24    30.21S
BROWNLEE         N/A     58  42  56 S15         N/A
SPRINGVIEW       N/A     62  42  48 SE10G17     N/A
BREWSTER         N/A     57  45  65 S17         N/A
ROSE             N/A     60  45  55 E15         N/A
NEWPORT          N/A     62  40  44 S14         N/A
SARGENT          N/A     54  47  77 CALM        N/A
COMSTOCK         N/A     55  48  78 S6          N/A
EWING            N/A     64  44  49 S7          N/A
$$

...OBSERVATIONS IN SOUTHWEST NEBRASKA AND FAR NORTHEAST COLORADO...

CITY           SKY/WX    TMP DP  RH WIND       PRES   REMARKS
WRAY           LGT RAIN N/A N/A N/A E15       30.07F
IMPERIAL       LGT RAIN  49  47  93 SE15      30.11S FOG
OGALLALA       LGT RAIN  48  46  93 E10       30.13F
NORTH PLATTE   LGT RAIN  47  45  93 E12       30.18S
MCCOOK         LGT RAIN  48  46  93 SE16      30.14F FOG
LEXINGTON      RAIN      49  47  90 SE8       30.21R
PAXTON           N/A     48  46  94 E14         N/A
GOTHENBURG       N/A     47  42  83 SE12        N/A
CALLAWAY         N/A     47  44  90 SE13        N/A
$$

...NORTH PLATTE AREA...

CITY           SKY/WX    TMP DP  RH WIND       PRES   REMARKS
AIRPORT        LGT RAIN  47  45  93 E12       30.18S
DOWNTOWN         N/A     47  45  92 E3          N/A
$$

...SOME WEATHER OBSERVATIONS FROM AROUND THE REGION...

CITY           SKY/WX    TMP DP  RH WIND       PRES   REMARKS
DENVER         LGT RAIN  50  46  86 E10       30.00R
LARAMIE        CLOUDY    47  38  71 SE21      30.00F
CHEYENNE       LGT RAIN  44  42  93 SE10      30.04S FOG
SCOTTSBLUFF    LGT RAIN  50  32  50 SE14      30.08S
RAPID CITY     CLOUDY    58  45  62 S15       30.10S
PIERRE         MOSUNNY   69  39  33 SE16G25   30.14F
WINNER         FAIR      67  35  30 SE16G28   30.16F
SIOUX FALLS    PTSUNNY   71  39  31 NW3       30.20F
OMAHA          CLOUDY    67  44  43 SE5       30.23F
GRAND ISLAND   CLOUDY    55  45  68 SE7       30.25R
KANSAS CITY    CLOUDY    59  49  69 SW7       30.28F
WICHITA        CLOUDY    55  52  89 SE8       30.21S
HAYS           CLOUDY    54  43  66 S15       30.18S
LIBERAL        CLOUDY    54  48  82 S15G21    30.13S
GOODLAND       RAIN      49  48  97 SE20G31   30.07S FOG
$$



USA.gov is the U.S. government's official web portal to all federal, state and local government web resources and services.